EW7144 Weather Reports


Display with metric or nautical units.
time (UTC)temp
F
wind
direction
speed
MPH
gust
MPH
rain 1hr
in
rain 24hr
in
rain mn
in
humidity
%
barometer
mb
20260506155405 61 16 8.0 13.0 0.10 0.12 0.10 90 1022.3
20260506154405 62 24 9.0 16.0 0.09 0.11 0.09 90 1022.5
20260506153905 62 355 10.0 20.0 0.08 0.09 0.08 90 1022.5
20260506153406 62 350 4.0 12.0 0.07 0.09 0.07 90 1022.6
20260506152906 62 358 2.0 12.0 0.06 0.08 0.06 90 1022.6
20260506152405 62 6 7.0 17.0 0.06 0.07 0.06 90 1022.7
20260506151905 62 13 7.0 13.0 0.04 0.06 0.04 90 1022.8
20260506150905 62 12 6.0 12.0 0.01 0.02 0.01 90 1022.8
20260506150405 62 13 3.0 10.0 0.01 0.02 0.01 90 1022.9
20260506145906 62 18 5.0 13.0 0.00 0.02 0.00 90 1023.1
20260506145406 62 25 7.0 12.0 0.00 0.02 0.00 90 1023.2
20260506144906 62 23 2.0 9.0 0.00 0.02 0.00 89 1023.3
20260506144405 62 4 3.0 8.0 0.00 0.02 0.00 89 1023.4
20260506143905 62 6 7.0 10.0 0.00 0.02 0.00 89 1023.5
20260506143406 62 0 2.0 5.0 0.00 0.02 0.00 89 1023.6
20260506142905 62 19 4.0 9.0 0.00 0.02 0.00 89 1023.6
20260506142406 62 4 4.0 9.0 0.00 0.02 0.00 89 1023.8
20260506141906 62 18 5.0 12.0 0.00 0.02 0.00 89 1023.8
20260506141406 62 14 4.0 8.0 0.00 0.02 0.00 89 1023.9
20260506140906 62 21 4.0 12.0 0.00 0.02 0.00 89 1023.9
20260506135905 62 25 3.0 13.0 0.00 0.02 0.00 89 1024.0
20260506135406 62 29 5.0 10.0 0.00 0.02 0.00 89 1024.1
20260506134906 62 7 5.0 9.0 0.00 0.02 0.00 89 1024.1
20260506133406 62 4 1.0 5.0 0.00 0.02 0.00 89 1024.2
20260506132906 62 5 3.0 6.0 0.00 0.02 0.00 89 1024.2
20260506132406 62 8 2.0 8.0 0.00 0.02 0.00 89 1024.3
20260506131906 62 14 3.0 9.0 0.00 0.02 0.00 89 1024.3
20260506130906 62 358 1.0 2.0 0.00 0.02 0.00 89 1024.4
20260506130405 62 16 0.0 1.0 0.00 0.02 0.00 89 1024.4
20260506125905 62 16 1.0 2.0 0.01 0.02 0.00 89 1024.4
20260506125405 62 1 2.0 3.0 0.01 0.02 0.00 89 1024.5
20260506124405 62 338 0.0 1.0 0.01 0.02 0.00 89 1024.5
20260506123906 62 349 0.0 1.0 0.01 0.02 0.00 89 1024.5
20260506123406 62 346 1.0 3.0 0.01 0.02 0.00 89 1024.6
20260506122406 62 345 2.0 3.0 0.01 0.02 0.00 89 1024.6
20260506121905 62 16 2.0 3.0 0.01 0.02 0.00 89 1024.7
20260506121406 62 349 0.0 3.0 0.01 0.02 0.00 89 1024.7
20260506120905 62 0 3.0 5.0 0.01 0.02 0.00 90 1024.7
20260506120405 62 13 3.0 7.0 0.01 0.02 0.00 90 1024.7
20260506115405 62 356 1.0 9.0 0.00 0.01 0.01 90 1024.7
20260506114906 62 24 1.0 3.0 0.00 0.01 0.01 90 1024.7
20260506114405 62 22 1.0 3.0 0.00 0.01 0.01 90 1024.8
20260506113905 62 0 2.0 3.0 0.00 0.01 0.01 90 1024.8
20260506113406 62 354 1.0 5.0 0.00 0.01 0.01 90 1024.9
20260506112405 62 5 1.0 3.0 0.00 0.01 0.01 90 1025.0
20260506111905 62 355 2.0 3.0 0.00 0.01 0.01 90 1025.0
20260506111407 62 8 1.0 3.0 0.00 0.01 0.01 90 1025.0
20260506110906 62 9 1.0 2.0 0.00 0.01 0.01 89 1025.0
20260506110406 62 18 0.0 0.0 0.00 0.01 0.01 89 1025.1
20260506105407 62 18 0.0 2.0 0.00 0.01 0.01 89 1025.1
20260506104907 62 10 0.0 1.0 0.00 0.01 0.01 89 1025.2
20260506104406 62 10 1.0 3.0 0.00 0.01 0.01 89 1025.2
20260506103907 62 4 0.0 2.0 0.00 0.01 0.01 89 1025.2
20260506103405 62 4 0.0 1.0 0.00 0.01 0.01 89 1025.2
20260506102907 62 4 0.0 3.0 0.00 0.01 0.01 89 1025.3
20260506102406 62 356 0.0 3.0 0.00 0.01 0.01 89 1025.3
20260506101908 62 352 0.0 2.0 0.00 0.01 0.01 89 1025.3
20260506100906 62 357 0.0 3.0 0.00 0.01 0.01 89 1025.3
20260506095907 62 1 2.0 7.0 0.00 0.01 0.01 90 1025.2
20260506095407 62 22 4.0 6.0 0.00 0.01 0.01 90 1025.3
20260506094906 62 3 1.0 5.0 0.00 0.01 0.01 90 1025.2
20260506094406 62 356 1.0 3.0 0.00 0.01 0.01 90 1025.3
20260506093906 62 18 2.0 3.0 0.00 0.01 0.01 90 1025.2
20260506093408 62 9 1.0 3.0 0.00 0.01 0.01 90 1025.2
20260506092906 62 2 1.0 7.0 0.00 0.01 0.01 90 1025.2
20260506092406 62 28 1.0 5.0 0.00 0.01 0.01 90 1025.2
20260506091907 62 33 1.0 3.0 0.00 0.01 0.01 90 1025.2
20260506091406 62 350 1.0 3.0 0.00 0.01 0.01 90 1025.3
20260506090905 62 334 0.0 2.0 0.00 0.01 0.01 90 1025.2
20260506090405 62 330 0.0 2.0 0.00 0.01 0.01 89 1025.3
20260506085905 62 17 1.0 2.0 0.00 0.01 0.01 89 1025.2
20260506085405 62 17 1.0 1.0 0.00 0.01 0.01 89 1025.2
20260506084406 62 18 1.0 1.0 0.00 0.01 0.01 89 1025.2
20260506083907 62 18 2.0 3.0 0.00 0.01 0.01 89 1025.2
20260506083407 62 353 1.0 3.0 0.00 0.01 0.01 89 1025.2
20260506082907 62 12 2.0 3.0 0.00 0.01 0.01 89 1025.2
20260506082406 62 23 2.0 3.0 0.00 0.01 0.01 89 1025.3
20260506081906 62 355 3.0 7.0 0.00 0.01 0.01 89 1025.3
20260506080906 62 5 3.0 8.0 0.00 0.01 0.01 89 1025.4
20260506080406 62 13 3.0 8.0 0.00 0.01 0.01 89 1025.3
20260506073408 62 2 1.0 5.0 0.00 0.01 0.01 90 1025.4
20260506072906 62 8 4.0 10.0 0.00 0.01 0.01 90 1025.5
20260506071907 62 349 3.0 8.0 0.00 0.01 0.01 90 1025.4
20260506071406 62 1 2.0 5.0 0.00 0.01 0.01 90 1025.5
20260506070906 62 16 1.0 7.0 0.00 0.01 0.01 90 1025.5
20260506062406 62 16 1.0 3.0 0.00 0.01 0.01 89 1025.4
20260506061905 62 0 2.0 5.0 0.00 0.01 0.01 89 1025.4
20260506061406 62 358 2.0 6.0 0.00 0.01 0.01 89 1025.5
20260506060405 62 25 1.0 5.0 0.00 0.01 0.01 89 1025.5
20260506051405 63 3 2.0 3.0 0.00 0.01 0.01 88 1025.5
20260506050905 63 355 2.0 8.0 0.00 0.01 0.01 88 1025.5
20260506050406 63 347 3.0 8.0 0.00 0.01 0.01 88 1025.5
20260506044905 63 352 3.0 9.0 0.00 0.01 0.01 88 1025.5
20260506044406 63 356 3.0 7.0 0.00 0.01 0.01 88 1025.5
20260506043905 63 352 3.0 9.0 0.00 0.01 0.01 88 1025.6
20260506042905 63 342 4.0 9.0 0.00 0.01 0.01 87 1025.6
20260506042405 63 341 3.0 7.0 0.00 0.01 0.01 87 1025.6
20260506041405 63 331 2.0 6.0 0.00 0.01 0.01 88 1025.5
20260506040905 63 348 3.0 9.0 0.00 0.01 0.01 88 1025.5
20260506040406 63 350 3.0 8.0 0.00 0.01 0.01 88 1025.5
20260506035906 63 0 4.0 10.0 0.00 0.01 0.01 88 1025.5
20260506035405 63 348 6.0 12.0 0.00 0.01 0.01 88 1025.5
20260506034905 63 350 2.0 9.0 0.00 0.01 0.01 88 1025.6
20260506034405 63 352 5.0 12.0 0.00 0.01 0.01 88 1025.6
20260506033905 63 346 6.0 10.0 0.00 0.01 0.01 88 1025.6
20260506033405 63 357 3.0 9.0 0.00 0.01 0.01 88 1025.6
20260506032405 63 353 3.0 9.0 0.00 0.01 0.01 88 1025.7
20260506031906 63 336 5.0 10.0 0.00 0.01 0.01 88 1025.7
20260506031405 63 349 3.0 8.0 0.00 0.01 0.01 88 1025.7
20260506030406 63 325 3.0 9.0 0.00 0.01 0.01 88 1025.8
20260506025905 63 349 3.0 5.0 0.00 0.01 0.01 87 1025.8
20260506025405 63 347 2.0 6.0 0.00 0.01 0.01 87 1025.7
20260506024905 63 359 3.0 8.0 0.00 0.01 0.01 87 1025.7
20260506024405 64 327 1.0 8.0 0.00 0.01 0.01 87 1025.7
20260506023905 64 356 1.0 3.0 0.00 0.01 0.01 87 1025.7
20260506023405 64 346 1.0 3.0 0.00 0.01 0.01 87 1025.8
20260506022906 64 341 0.0 1.0 0.00 0.01 0.01 87 1025.7
20260506022405 64 351 1.0 2.0 0.00 0.01 0.01 87 1025.8
20260506021905 64 317 1.0 3.0 0.00 0.01 0.01 87 1025.8
20260506021406 64 353 1.0 3.0 0.00 0.01 0.01 87 1025.8
20260506020905 64 358 1.0 3.0 0.00 0.01 0.01 86 1025.8
20260506020405 64 353 2.0 3.0 0.00 0.01 0.01 86 1025.9
20260506015905 64 340 2.0 3.0 0.00 0.01 0.01 86 1025.9
20260506015405 64 339 1.0 3.0 0.00 0.01 0.01 85 1025.9
20260506014906 64 338 1.0 3.0 0.00 0.01 0.01 84 1025.9
20260506014405 65 332 1.0 5.0 0.00 0.01 0.01 84 1026.0
20260506013905 65 306 1.0 3.0 0.00 0.01 0.01 84 1026.0
20260506013405 65 275 1.0 3.0 0.00 0.01 0.01 83 1026.1
20260506012905 65 206 1.0 3.0 0.00 0.01 0.01 84 1026.1
20260506012405 65 292 1.0 3.0 0.00 0.01 0.01 84 1026.2
20260506011905 65 329 1.0 3.0 0.00 0.01 0.01 84 1026.2
20260506010405 64 237 1.0 2.0 0.00 0.01 0.01 85 1026.3
20260506005905 64 359 2.0 3.0 0.00 0.01 0.01 84 1026.4
20260506005406 64 353 1.0 3.0 0.00 0.01 0.01 84 1026.5
20260506004910 64 318 2.0 5.0 0.00 0.01 0.01 84 1026.5
20260506004406 64 359 1.0 5.0 0.00 0.01 0.01 84 1026.6
20260506003906 64 320 2.0 3.0 0.00 0.01 0.01 84 1026.7
20260506003407 64 294 1.0 3.0 0.00 0.01 0.01 84 1026.7
20260506002907 64 302 1.0 2.0 0.00 0.01 0.01 84 1026.7
20260506002406 64 354 1.0 3.0 0.00 0.01 0.01 84 1026.8
20260506001407 64 355 1.0 2.0 0.00 0.01 0.01 83 1026.9
20260506000905 64 359 1.0 2.0 0.00 0.01 0.01 82 1026.9
20260506000406 65 322 1.0 3.0 0.00 0.01 0.01 82 1027.0
20260505235905 64 227 0.0 2.0 0.00 0.01 0.01 83 1027.0
20260505235406 64 218 1.0 2.0 0.00 0.01 0.01 82 1027.1
20260505234406 64 219 1.0 2.0 0.00 0.01 0.01 83 1027.2
20260505233906 64 219 0.0 2.0 0.00 0.01 0.01 83 1027.2
20260505233406 64 219 0.0 2.0 0.00 0.01 0.01 83 1027.3
20260505232905 64 219 1.0 2.0 0.00 0.01 0.01 83 1027.3
20260505232405 63 218 1.0 2.0 0.00 0.01 0.01 84 1027.3
20260505230905 62 136 0.0 1.0 0.01 0.01 0.01 86 1027.4
20260505230405 62 135 0.0 1.0 0.01 0.01 0.01 86 1027.4
20260505225906 62 118 0.0 1.0 0.01 0.01 0.01 86 1027.5
20260505225406 62 118 0.0 2.0 0.01 0.01 0.01 87 1027.4
20260505224905 61 118 0.0 1.0 0.01 0.01 0.01 88 1027.4
20260505224405 60 116 0.0 1.0 0.01 0.01 0.01 88 1027.4
20260505223906 60 115 0.0 1.0 0.01 0.01 0.01 88 1027.4
20260505223405 60 116 0.0 0.0 0.01 0.01 0.01 88 1027.4
20260505222905 60 116 0.0 1.0 0.01 0.01 0.01 88 1027.5
20260505221905 58 116 0.0 2.0 0.01 0.01 0.01 87 1027.5
20260505221405 58 116 0.0 2.0 0.01 0.01 0.01 87 1027.6
20260505220905 58 129 0.0 2.0 0.00 0.00 0.00 87 1027.6
20260505215905 57 103 2.0 3.0 0.00 0.00 0.00 86 1027.7
20260505215405 57 104 1.0 2.0 0.00 0.00 0.00 86 1027.7
20260505214905 57 122 2.0 6.0 0.00 0.00 0.00 85 1027.7
20260505214405 58 91 1.0 3.0 0.00 0.00 0.00 85 1027.7
20260505213406 57 79 1.0 6.0 0.00 0.00 0.00 84 1027.7
20260505212905 57 94 2.0 6.0 0.00 0.00 0.00 84 1027.7
20260505212405 57 97 2.0 7.0 0.00 0.00 0.00 84 1027.7
20260505211905 57 102 6.0 9.0 0.00 0.00 0.00 84 1027.7
20260505211406 57 101 5.0 8.0 0.00 0.00 0.00 84 1027.6
20260505210406 58 92 3.0 7.0 0.00 0.00 0.00 84 1027.6
20260505205907 58 106 4.0 7.0 0.00 0.00 0.00 84 1027.6
20260505205406 58 97 5.0 8.0 0.00 0.00 0.00 83 1027.6
20260505204906 58 107 5.0 8.0 0.00 0.00 0.00 83 1027.5
20260505204406 58 103 5.0 9.0 0.00 0.00 0.00 84 1027.5
20260505203907 58 94 4.0 8.0 0.00 0.00 0.00 84 1027.5
20260505203406 57 104 6.0 8.0 0.00 0.00 0.00 84 1027.5
20260505202906 57 97 5.0 9.0 0.00 0.00 0.00 84 1027.4
20260505202407 57 105 5.0 8.0 0.00 0.00 0.00 84 1027.4
20260505201906 57 106 6.0 9.0 0.00 0.00 0.00 84 1027.3
20260505201406 57 107 7.0 9.0 0.00 0.00 0.00 84 1027.3
20260505200905 56 96 7.0 10.0 0.00 0.00 0.00 84 1027.3
20260505200408 56 102 6.0 10.0 0.00 0.00 0.00 85 1027.2
20260505195406 56 101 7.0 10.0 0.00 0.00 0.00 84 1027.4
20260505194906 56 102 7.0 9.0 0.00 0.00 0.00 84 1027.4
20260505194407 56 103 7.0 9.0 0.00 0.00 0.00 84 1027.4
20260505193906 56 102 7.0 12.0 0.00 0.00 0.00 84 1027.4
20260505193406 56 100 7.0 12.0 0.00 0.00 0.00 84 1027.3
20260505192907 56 98 7.0 10.0 0.00 0.00 0.00 84 1027.3
20260505191906 56 100 6.0 12.0 0.00 0.00 0.00 84 1027.3
20260505191406 56 110 7.0 10.0 0.00 0.00 0.00 84 1027.3
20260505190908 56 103 7.0 12.0 0.00 0.00 0.00 83 1027.3
20260505185906 56 104 8.0 9.0 0.00 0.00 0.00 83 1027.4
20260505185406 56 101 7.0 9.0 0.00 0.00 0.00 83 1027.5
20260505184907 56 86 6.0 10.0 0.00 0.00 0.00 82 1027.5
20260505184406 56 90 5.0 9.0 0.00 0.00 0.00 82 1027.5
20260505183906 56 96 6.0 10.0 0.00 0.00 0.00 81 1027.5
20260505182906 56 99 7.0 10.0 0.00 0.00 0.00 81 1027.5
20260505181905 56 92 6.0 9.0 0.00 0.00 0.00 81 1027.5
20260505181408 56 94 5.0 8.0 0.00 0.00 0.00 81 1027.5
20260505180906 56 94 6.0 9.0 0.00 0.00 0.00 81 1027.5
20260505180406 55 94 7.0 9.0 0.00 0.00 0.00 82 1027.5
20260505175906 55 99 8.0 10.0 0.00 0.00 0.00 82 1027.6
20260505175407 55 101 6.0 12.0 0.00 0.00 0.00 81 1027.7
20260505174906 55 95 7.0 12.0 0.00 0.00 0.00 81 1027.7
20260505174406 55 96 7.0 10.0 0.00 0.00 0.00 82 1027.6
20260505172906 55 103 7.0 9.0 0.00 0.00 0.00 84 1027.8
20260505172407 55 62 0.0 3.0 0.00 0.00 0.00 84 1027.9
20260505171906 55 108 0.0 3.0 0.00 0.00 0.00 84 1027.9
20260505171406 55 79 2.0 3.0 0.00 0.00 0.00 83 1027.9
20260505170907 55 5 1.0 6.0 0.00 0.00 0.00 82 1028.1
20260505170405 55 101 7.0 13.0 0.00 0.00 0.00 82 1027.9
20260505165906 55 93 7.0 12.0 0.00 0.00 0.00 82 1027.7
20260505164906 55 101 9.0 12.0 0.00 0.00 0.00 82 1027.9
20260505164405 55 93 8.0 10.0 0.00 0.00 0.00 82 1028.0
20260505163906 55 94 7.0 10.0 0.00 0.00 0.00 82 1028.0
20260505163406 55 94 7.0 9.0 0.00 0.00 0.00 83 1028.0
20260505162906 55 108 6.0 8.0 0.00 0.00 0.00 83 1028.1
20260505162407 55 106 2.0 7.0 0.00 0.00 0.00 83 1028.2
20260505161907 55 110 6.0 8.0 0.00 0.00 0.00 83 1028.2
20260505161406 55 103 2.0 3.0 0.00 0.00 0.00 83 1028.2
20260505160906 55 143 0.0 2.0 0.00 0.00 0.00 83 1028.3
20260505160406 56 181 1.0 5.0 0.00 0.00 0.00 82 1028.3